Tracking 19149 objects as of 21-Apr-2018
HD Live streaming from Space Station
objects crossing your sky now

BREEZE-M DEB

Track BREEZE-M DEB now!
10-day predictions


NORAD ID: 34250
Int'l Code: 2006-006BR
Perigee: 523.1 km
Apogee: 14,709.0 km
Inclination: 51.7 °
Period: 274.4 minutes
Semi major axis: 13987 km
RCS: 0.0694 m2 (small)
Launch date: February 28, 2006
Source: Commonwealth of Independent States (former USSR) (CIS)
Launch site: TYURATAM MISSILE AND SPACE COMPLEX (TTMTR)

Note: This is SATELLITE DEBRIS
aabbcc
Your satellite tracking list
Your tracking list is empty




NASA's NSSDC Master Catalog

Two Line Element Set (TLE):
1 34250U 06006BR  18107.31461512 +.00000204 +00000-0 +39900-3 0  9996
2 34250 051.7044 182.2062 5071108 197.5283 135.3400 05.24825651197994
Source of the keplerian elements: AFSPC